Athens, GA

11:07 AM EDT on June 24, 2017 (GMT -0400)
Athens / Epps

Weather History for KAHN - May, 2014

Change the Weather History Date:

Sunday, May 18, 2014

  Actual Average Record
Temperature  
Mean Temperature 56 °F 71 °F  
Max Temperature 62 °F 82 °F 94 °F (1962)
Min Temperature 50 °F 59 °F 39 °F (1973)
Degree Days  
Heating Degree Days 8    
Cooling Degree Days 0 6  
Month to date cooling degree days 98 80  
Year to date cooling degree days 150 138  
Growing Degree Days 6 (Base 50)    
Moisture  
Dew Point 54 °F    
Average Humidity 86    
Maximum Humidity 100    
Minimum Humidity 72    
Precipitation  
Precipitation 0.39 in 0.09 in 1.00 in (1978)
Month to date precipitation 3.10 1.78  
Year to date precipitation 19.28 17.89  
Sea Level Pressure  
Sea Level Pressure 30.22 in    
Wind  
Wind Speed 3 mph (NE)    
Max Wind Speed 13 mph    
Max Gust Speed 18 mph    
Visibility 7 miles    
Events Fog , Rain    
T = Trace of Precipitation, MM = Missing Value Source: NWS Daily Summary

Daily Weather History Graph

Daily Weather History Graph

Search for Another Location

Airport or City:

Trip Planner

Search our weather history database for the weather conditions in past years. The results will help you decide how hot, cold, wet, or windy it might be!

Date:

Astronomy

May. 18, 2014 Rise Set
Actual Time 6:29 AM EDT 8:29 PM EDT
Civil Twilight 6:02 AM EDT 8:57 PM EDT
Nautical Twilight 5:28 AM EDT 9:31 PM EDT
Astronomical Twilight 4:52 AM EDT 10:08 PM EDT
Moon No Moon Rise 10:15 AM EDT (5/18)
Length of Visible Light 14h 55m
Length of Day
14h 00m
Waning Gibbous, 81% of the Moon is Illuminated
May 18
Waning Gibbous
May 21
Last Quarter
May 28
New
Jun 5
First Quarter
Jun 13
Full

Hourly Weather History & Observations

Time (EDT) Temp. Dew Point Humidity Pressure Visibility Wind Dir Wind Speed Gust Speed Precip Events Conditions
12:51 AM 54.0 °F 48.9 °F 83% 30.18 in 10.0 mi Calm Calm - N/A   Mostly Cloudy
1:51 AM 57.0 °F 48.9 °F 74% 30.18 in 10.0 mi North 4.6 mph - N/A   Overcast
2:51 AM 57.0 °F 48.9 °F 74% 30.19 in 10.0 mi North 5.8 mph - N/A   Overcast
3:51 AM 55.9 °F 50.0 °F 80% 30.22 in 10.0 mi NW 6.9 mph - N/A   Overcast
4:51 AM 55.4 °F 51.8 °F 88% 30.19 in 10.0 mi ENE 4.6 mph - N/A Rain Light Rain
5:51 AM 54.0 °F 52.0 °F 93% 30.19 in 10.0 mi East 6.9 mph - 0.00 in   Overcast
6:51 AM 54.0 °F 52.0 °F 93% 30.22 in 10.0 mi Variable 3.5 mph - N/A   Overcast
7:51 AM 53.6 °F 53.6 °F 100% 30.23 in 6.0 mi NNE 4.6 mph - N/A Rain Light Rain
8:05 AM 53.6 °F 53.6 °F 100% 30.24 in 2.0 mi NE 3.5 mph - 0.04 in Rain Rain
8:16 AM 53.6 °F 53.6 °F 100% 30.26 in 1.5 mi Calm Calm - 0.08 in Rain Rain
8:24 AM 53.6 °F 53.6 °F 100% 30.25 in 1.2 mi Calm Calm - 0.14 in Rain Heavy Rain
8:30 AM 53.6 °F 53.6 °F 100% 30.23 in 2.0 mi East 5.8 mph - 0.16 in Rain Rain
8:47 AM 53.6 °F 53.6 °F 100% 30.23 in 4.0 mi East 5.8 mph - 0.19 in Rain Light Rain
8:51 AM 54.0 °F 53.1 °F 97% 30.23 in 5.0 mi East 4.6 mph - 0.19 in Rain Light Rain
9:04 AM 55.4 °F 53.6 °F 94% 30.22 in 8.0 mi East 6.9 mph - 0.00 in Rain Light Rain
9:44 AM 55.4 °F 53.6 °F 94% 30.26 in 2.0 mi Variable 3.5 mph - 0.04 in Rain Rain
9:51 AM 55.0 °F 53.1 °F 93% 30.27 in 2.5 mi Calm Calm - 0.06 in Rain Rain
9:59 AM 55.4 °F 53.6 °F 94% 30.25 in 2.0 mi NNE 4.6 mph - 0.04 in Rain Rain
10:04 AM 55.4 °F 53.6 °F 94% 30.25 in 3.0 mi ENE 5.8 mph - 0.05 in Rain Rain
10:51 AM 55.4 °F 55.4 °F 100% 30.25 in 7.0 mi East 5.8 mph - N/A Rain Light Rain
11:51 AM 57.9 °F 55.0 °F 90% 30.24 in 10.0 mi East 4.6 mph - 0.01 in   Overcast
12:51 PM 59.0 °F 55.9 °F 90% 30.25 in 9.0 mi NNE 3.5 mph - 0.02 in Rain Light Rain
1:51 PM 60.1 °F 55.9 °F 86% 30.24 in 10.0 mi Calm Calm - 0.00 in   Overcast
2:34 PM 60.8 °F 55.4 °F 82% 30.24 in 10.0 mi Calm Calm - N/A   Overcast
2:51 PM 60.1 °F 55.9 °F 86% 30.24 in 10.0 mi Calm Calm - 0.00 in Rain Light Rain
3:30 PM 60.8 °F 55.4 °F 82% 30.22 in 10.0 mi Calm Calm - 0.00 in Rain Light Rain
3:51 PM 61.0 °F 55.9 °F 83% 30.22 in 10.0 mi Calm Calm - 0.00 in Rain Light Rain
4:43 PM 60.8 °F 55.4 °F 82% 30.22 in 10.0 mi Calm Calm - 0.00 in   Overcast
4:51 PM 61.0 °F 55.0 °F 81% 30.21 in 10.0 mi Calm Calm - 0.00 in   Overcast
5:12 PM 60.8 °F 55.4 °F 82% 30.21 in 10.0 mi Calm Calm - N/A   Overcast
5:51 PM 62.1 °F 57.9 °F 86% 30.21 in 10.0 mi NE 3.5 mph - 0.00 in   Mostly Cloudy
6:26 PM 60.8 °F 57.2 °F 88% 30.21 in 10.0 mi NE 5.8 mph - N/A   Overcast
6:51 PM 60.1 °F 55.9 °F 86% 30.21 in 10.0 mi Variable 6.9 mph - N/A   Overcast
7:06 PM 60.8 °F 55.4 °F 82% 30.21 in 10.0 mi ENE 4.6 mph - N/A   Overcast
7:19 PM 60.8 °F 55.4 °F 82% 30.21 in 10.0 mi Variable 3.5 mph - N/A   Mostly Cloudy
7:51 PM 60.1 °F 55.9 °F 86% 30.21 in 10.0 mi Calm Calm - N/A   Overcast
8:51 PM 55.9 °F 54.0 °F 93% 30.21 in 10.0 mi Calm Calm - N/A   Clear
9:51 PM 53.1 °F 52.0 °F 96% 30.22 in 5.0 mi Calm Calm - N/A   Clear
10:01 PM 53.6 °F 53.6 °F 100% 30.22 in 7.0 mi ENE 3.5 mph - N/A   Partly Cloudy
10:51 PM 53.6 °F 51.8 °F 94% 30.23 in 5.0 mi Calm Calm - N/A   Partly Cloudy
11:10 PM 53.6 °F 51.8 °F 94% 30.23 in 1.8 mi Calm Calm - N/A   Clear
11:19 PM 53.6 °F 51.8 °F 94% 30.23 in 2.0 mi Calm Calm - N/A   Partly Cloudy
11:41 PM 51.8 °F 51.8 °F 100% 30.23 in 1.2 mi Calm Calm - N/A   Partly Cloudy
11:51 PM 52.0 °F 51.1 °F 97% 30.23 in 0.8 mi Calm Calm - N/A   Mist
11:58 PM 51.8 °F 51.8 °F 100% 30.23 in 0.2 mi Calm Calm - N/A Fog Fog